• En España
  • Lista de países
  • Para 7 días
  • Temperatura del agua
  • Mapa Satelital
  • El tiempo en el mapa
  • Informadores
  • user-avatar
    Iniciar sesión

    Tiempo cada hora Kaprun

    Hoy, 18 Octubre, Miércoles

    Tiempo Temperatura Precipitaciones Viento Presión Humedad
    00:00 +3°C° 0 mm 2 mps 599 mmHg 64%
    01:00 +3°C° 0 mm 2 mps 599 mmHg 59%
    02:00 +3°C° 0 mm 2 mps 599 mmHg 58%
    03:00 +3°C° 0 mm 2 mps 598 mmHg 57%
    04:00 +4°C° 0 mm 1 mps 598 mmHg 56%
    05:00 +3°C° 0 mm 1 mps 598 mmHg 56%
    06:00 +3°C° 0 mm 1 mps 598 mmHg 55%
    07:00 +3°C° 0 mm 1 mps 598 mmHg 54%
    08:00 +6°C° 0 mm 1 mps 599 mmHg 48%
    09:00 +8°C° 0 mm 1 mps 600 mmHg 43%
    10:00 +11°C° 0 mm 1 mps 601 mmHg 37%
    11:00 +12°C° 0 mm 1 mps 601 mmHg 37%
    12:00 +13°C° 0 mm 1 mps 601 mmHg 36%
    13:00 +13°C° 0 mm 1 mps 601 mmHg 35%
    14:00 +12°C° 0 mm 1 mps 600 mmHg 42%
    15:00 +11°C° 0 mm 1 mps 600 mmHg 49%
    16:00 +11°C° 0 mm 1 mps 599 mmHg 56%
    17:00 +8°C° 0 mm 1 mps 598 mmHg 64%
    18:00 +6°C° 0 mm 1 mps 597 mmHg 71%
    19:00 +3°C° 0 mm 1 mps 596 mmHg 79%
    20:00 +3°C° 0 mm 1 mps 597 mmHg 76%
    21:00 +3°C° 0 mm 1 mps 597 mmHg 73%
    22:00 +3°C° 0 mm 1 mps 597 mmHg 70%
    23:00 +2°C° 0 mm 1 mps 597 mmHg 68%

    Mañana, 19 Octubre, Jueves

    Tiempo Temperatura Precipitaciones Viento Presión Humedad
    00:00 +2°C° 0 mm 1 mps 597 mmHg 65%
    01:00 +2°C° 0 mm 1 mps 596 mmHg 63%
    02:00 +2°C° 0 mm 1 mps 596 mmHg 62%
    03:00 +2°C° 0 mm 1 mps 596 mmHg 61%
    04:00 +2°C° 0 mm 1 mps 596 mmHg 60%
    05:00 +2°C° 0 mm 1 mps 596 mmHg 59%
    06:00 +2°C° 0 mm 1 mps 596 mmHg 58%
    07:00 +1°C° 0 mm 1 mps 596 mmHg 57%
    08:00 +4°C° 0 mm 1 mps 597 mmHg 50%
    09:00 +7°C° 0 mm 1 mps 599 mmHg 44%
    10:00 +10°C° 0 mm 1 mps 600 mmHg 37%
    11:00 +11°C° 0 mm 1 mps 600 mmHg 36%
    12:00 +12°C° 0 mm 1 mps 600 mmHg 36%
    13:00 +12°C° 0 mm 1 mps 600 mmHg 35%
    14:00 +12°C° 0 mm 1 mps 600 mmHg 41%
    15:00 +11°C° 0 mm 1 mps 599 mmHg 48%
    16:00 +10°C° 0 mm 1 mps 599 mmHg 55%
    17:00 +8°C° 0 mm 1 mps 598 mmHg 61%
    18:00 +5°C° 0 mm 1 mps 597 mmHg 67%
    19:00 +3°C° 0 mm 1 mps 596 mmHg 73%
    20:00 +3°C° 0 mm 1 mps 596 mmHg 72%
    21:00 +3°C° 0 mm 1 mps 596 mmHg 70%
    22:00 +2°C° 0 mm 1 mps 596 mmHg 68%
    23:00 +2°C° 0 mm 1 mps 596 mmHg 68%

    Pasado mañana, 20 Octubre, Viernes

    Tiempo Temperatura Precipitaciones Viento Presión Humedad
    00:00 +2°C° 0 mm 1 mps 596 mmHg 68%
    01:00 +2°C° 0 mm 1 mps 596 mmHg 67%
    02:00 +2°C° 0 mm 1 mps 596 mmHg 67%
    03:00 +2°C° 0 mm 1 mps 596 mmHg 67%
    04:00 +1°C° 0 mm 1 mps 596 mmHg 66%
    05:00 +1°C° 0 mm 1 mps 596 mmHg 65%
    06:00 +1°C° 0 mm 1 mps 596 mmHg 65%
    07:00 +1°C° 0 mm 1 mps 596 mmHg 64%
    08:00 +4°C° 0 mm 1 mps 598 mmHg 57%
    09:00 +7°C° 0 mm 1 mps 599 mmHg 50%
    10:00 +10°C° 0 mm 1 mps 600 mmHg 43%
    11:00 +11°C° 0 mm 1 mps 601 mmHg 42%
    12:00 +12°C° 0 mm 1 mps 601 mmHg 41%
    13:00 +12°C° 0 mm 1 mps 601 mmHg 39%
    14:00 +11°C° 0 mm 1 mps 600 mmHg 48%
    15:00 +10°C° 0 mm 1 mps 600 mmHg 56%
    16:00 +9°C° 0 mm 1 mps 600 mmHg 65%
    17:00 +7°C° 0 mm 1 mps 599 mmHg 72%
    18:00 +5°C° 0 mm 1 mps 598 mmHg 79%
    19:00 +3°C° 0 mm 1 mps 598 mmHg 86%
    20:00 +3°C° 0 mm 1 mps 598 mmHg 85%
    21:00 +3°C° 0 mm 1 mps 598 mmHg 84%
    22:00 +2°C° 0 mm 1 mps 598 mmHg 82%
    23:00 +2°C° 0 mm 1 mps 598 mmHg 80%

    21 Octubre, Sábado

    Tiempo Temperatura Precipitaciones Viento Presión Humedad
    00:00 +2°C° 0 mm 1 mps 598 mmHg 79%
    01:00 +2°C° 0 mm 1 mps 598 mmHg 77%
    02:00 +2°C° 0 mm 1 mps 598 mmHg 75%
    03:00 +2°C° 0 mm 1 mps 598 mmHg 74%
    04:00 +2°C° 0 mm 1 mps 598 mmHg 72%
    05:00 +2°C° 0 mm 1 mps 598 mmHg 71%
    06:00 +2°C° 0 mm 1 mps 598 mmHg 70%
    07:00 +2°C° 0 mm 1 mps 598 mmHg 70%
    08:00 +4°C° 0 mm 1 mps 599 mmHg 63%
    09:00 +7°C° 0 mm 1 mps 600 mmHg 56%
    10:00 +9°C° 0 mm 0 mps 601 mmHg 49%
    11:00 +11°C° 0 mm 1 mps 601 mmHg 47%
    12:00 +11°C° 0 mm 1 mps 602 mmHg 45%
    13:00 +12°C° 0 mm 1 mps 602 mmHg 43%
    14:00 +11°C° 0 mm 1 mps 601 mmHg 50%
    15:00 +11°C° 0 mm 1 mps 600 mmHg 56%
    16:00 +10°C° 0 mm 1 mps 600 mmHg 63%
    17:00 +8°C° 0 mm 1 mps 599 mmHg 69%
    18:00 +6°C° 0 mm 1 mps 598 mmHg 76%
    19:00 +4°C° 0 mm 1 mps 598 mmHg 82%
    20:00 +4°C° 0 mm 1 mps 598 mmHg 83%
    21:00 +4°C° 0 mm 1 mps 598 mmHg 83%
    22:00 +3°C° 0 mm 1 mps 597 mmHg 84%
    23:00 +3°C° 0 mm 1 mps 597 mmHg 86%

    22 Octubre, Domingo

    Tiempo Temperatura Precipitaciones Viento Presión Humedad
    00:00 +3°C° 0 mm 1 mps 597 mmHg 87%
    01:00 +1°C° 0 mm 0 mps 597 mmHg 89%
    02:00 +2°C° 0,2 mm 1 mps 597 mmHg 91%
    03:00 +2°C° 0,2 mm 1 mps 597 mmHg 92%
    04:00 +2°C° 0,2 mm 1 mps 597 mmHg 94%
    05:00 +2°C° 1 mm 1 mps 597 mmHg 95%
    06:00 +2°C° 1 mm 1 mps 596 mmHg 95%
    07:00 +1°C° 1 mm 2 mps 596 mmHg 96%
    08:00 +1°C° 1,6 mm 2 mps 596 mmHg 96%
    09:00 +1°C° 1,6 mm 2 mps 596 mmHg 95%
    10:00 -1°C° 1,6 mm 2 mps 596 mmHg 95%
    11:00 -1°C° 3,1 mm 2 mps 596 mmHg 95%
    12:00 -2°C° 3,1 mm 3 mps 595 mmHg 94%
    13:00 -2°C° 3,1 mm 3 mps 595 mmHg 94%
    14:00 -4°C° 1,9 mm 3 mps 595 mmHg 94%
    15:00 -4°C° 1,9 mm 3 mps 595 mmHg 94%
    16:00 -4°C° 1,9 mm 3 mps 594 mmHg 94%
    17:00 -5°C° 0,6 mm 3 mps 595 mmHg 94%
    18:00 -5°C° 0,6 mm 3 mps 595 mmHg 94%
    19:00 -5°C° 0,6 mm 3 mps 595 mmHg 94%
    20:00 -6°C° 0,5 mm 3 mps 595 mmHg 95%
    21:00 -6°C° 0,5 mm 3 mps 595 mmHg 95%
    22:00 -6°C° 0,5 mm 3 mps 595 mmHg 95%
    23:00 -6°C° 0,4 mm 3 mps 595 mmHg 95%

    23 Octubre, Lunes

    Tiempo Temperatura Precipitaciones Viento Presión Humedad
    00:00 -6°C° 0,4 mm 3 mps 595 mmHg 96%
    01:00 -6°C° 0,4 mm 3 mps 595 mmHg 96%
    02:00 -7°C° 0,2 mm 3 mps 595 mmHg 96%
    03:00 -7°C° 0,2 mm 3 mps 595 mmHg 95%
    04:00 -7°C° 0,2 mm 3 mps 595 mmHg 95%
    05:00 -7°C° 0,1 mm 3 mps 595 mmHg 95%
    06:00 -7°C° 0,1 mm 3 mps 595 mmHg 94%
    07:00 -8°C° 0,1 mm 3 mps 595 mmHg 94%
    08:00 -7°C° 0,1 mm 3 mps 596 mmHg 92%
    09:00 -5°C° 0,1 mm 3 mps 596 mmHg 91%
    10:00 -4°C° 0,1 mm 3 mps 597 mmHg 90%
    11:00 -4°C° 0,1 mm 3 mps 597 mmHg 90%
    12:00 -2°C° 0,1 mm 3 mps 597 mmHg 89%
    13:00 -2°C° 0,1 mm 3 mps 597 mmHg 89%
    14:00 -2°C° 0,3 mm 3 mps 597 mmHg 90%
    15:00 -2°C° 0,3 mm 3 mps 597 mmHg 91%
    16:00 -2°C° 0,3 mm 2 mps 597 mmHg 93%
    17:00 -3°C° 0,4 mm 2 mps 597 mmHg 93%
    18:00 -4°C° 0,4 mm 2 mps 597 mmHg 94%
    19:00 -4°C° 0,4 mm 2 mps 597 mmHg 95%
    20:00 -4°C° 0,2 mm 2 mps 597 mmHg 95%
    21:00 -5°C° 0,2 mm 2 mps 597 mmHg 95%
    22:00 -5°C° 0,2 mm 2 mps 597 mmHg 95%
    23:00 -5°C° 0,2 mm 2 mps 597 mmHg 95%
    Mostrar más